Weather History for Cambridge, MD

Change the Weather History Date:

Friday, September 13, 2013

  Actual Average (KESN) Record (KESN)
Temperature  
Mean Temperature 73 °F -  
Max Temperature 78 °F 82 °F 92 °F (1961)
Min Temperature 68 °F 56 °F 35 °F (2008)
Cooling Degree Days 8    
Growing Degree Days 23 (Base 50)    
Moisture  
Dew Point 60 °F    
Average Humidity 69    
Maximum Humidity 100    
Minimum Humidity 39    
Precipitation  
Precipitation 0.00 in - - ()
Sea Level Pressure  
Sea Level Pressure 29.76 in    
Wind  
Wind Speed 5 mph (NW)    
Max Wind Speed 14 mph    
Max Gust Speed 24 mph    
Visibility 8 miles    
Events      
Averages and records for this station are not official NWS values.
T = Trace of Precipitation, MM = Missing Value Source: NWS Daily Summary

Daily Weather History Graph

Daily Weather History Graph

Search for Another Location

Airport:

Trip Planner

Search our weather history database for the weather conditions in past years. The results will help you decide how hot, cold, wet, or windy it might be!

Date:

Astronomy

Sep. 13, 2013 Rise Set
Actual Time 6:44 AM EDT 7:15 PM EDT
Civil Twilight 6:17 AM EDT 7:41 PM EDT
Nautical Twilight 5:46 AM EDT 8:13 PM EDT
Astronomical Twilight 5:13 AM EDT 8:45 PM EDT
Moon 2:59 PM EDT (9/13) 12:14 AM EDT (9/13)
Length of Visible Light 13h 24m
Length of Day
12h 30m
First Quarter, 61% of the Moon is Illuminated
Sep 13
First Quarter
Sep 19
Full
Sep 26
Last Quarter
Oct 4
New
Oct 11
First Quarter

Hourly Weather History & Observations

Time (EDT) Temp. Dew Point Humidity Pressure Visibility Wind Dir Wind Speed Gust Speed Precip Events Conditions
12:05 AM 69.8 °F 68.0 °F 94% 29.74 in 5.0 mi Calm Calm - N/A   Clear
12:25 AM 69.8 °F 68.0 °F 94% 29.74 in 4.0 mi Calm Calm - N/A   Clear
12:45 AM 69.8 °F 68.0 °F 94% 29.74 in 3.0 mi SSW 3.5 mph - N/A   Unknown
1:05 AM 71.6 °F 69.8 °F 94% 29.73 in 4.0 mi SSW 3.5 mph - N/A   Clear
1:25 AM 69.8 °F 69.8 °F 100% 29.73 in 3.0 mi Calm Calm - N/A   Unknown
1:45 AM 71.6 °F 69.8 °F 94% 29.72 in 3.0 mi Calm Calm - N/A   Unknown
2:05 AM 71.6 °F 71.6 °F 100% 29.71 in 4.0 mi WSW 4.6 mph - N/A   Scattered Clouds
2:25 AM 73.4 °F 71.6 °F 94% 29.71 in 3.0 mi SW 4.6 mph - N/A   Unknown
2:45 AM 73.4 °F 71.6 °F 94% 29.69 in 3.0 mi Calm Calm - N/A   Unknown
3:05 AM 73.4 °F 71.6 °F 94% 29.69 in 3.0 mi WSW 3.5 mph - N/A   Unknown
3:25 AM 71.6 °F 69.8 °F 94% 29.69 in 3.0 mi West 3.5 mph - N/A   Unknown
3:45 AM 71.6 °F 69.8 °F 94% 29.69 in 5.0 mi Calm Calm - N/A   Scattered Clouds
4:05 AM 71.6 °F 69.8 °F 94% 29.69 in 5.0 mi Calm Calm - N/A   Clear
4:25 AM 71.6 °F 69.8 °F 94% 29.69 in 4.0 mi Calm Calm - N/A   Clear
4:45 AM 71.6 °F 69.8 °F 94% 29.70 in 4.0 mi Calm Calm - N/A   Scattered Clouds
5:05 AM 69.8 °F 68.0 °F 94% 29.70 in 4.0 mi Calm Calm - N/A   Mostly Cloudy
5:25 AM 69.8 °F 68.0 °F 94% 29.70 in 5.0 mi Calm Calm - N/A   Scattered Clouds
5:45 AM 69.8 °F 68.0 °F 94% 29.70 in 5.0 mi WNW 4.6 mph - N/A   Clear
6:05 AM 69.8 °F 68.0 °F 94% 29.70 in 5.0 mi West 5.8 mph - N/A   Scattered Clouds
6:25 AM 69.8 °F 68.0 °F 94% 29.70 in 7.0 mi WNW 3.5 mph - N/A   Clear
6:45 AM 69.8 °F 68.0 °F 94% 29.71 in 7.0 mi WNW 4.6 mph - N/A   Clear
7:05 AM 69.8 °F 68.0 °F 94% 29.71 in 10.0 mi West 3.5 mph - N/A   Scattered Clouds
7:26 AM 69.8 °F 66.2 °F 88% 29.72 in 10.0 mi NW 6.9 mph - N/A   Scattered Clouds
7:46 AM 69.8 °F 64.4 °F 83% 29.72 in 10.0 mi NW 6.9 mph - N/A   Clear
8:06 AM 71.6 °F 64.4 °F 78% 29.73 in 10.0 mi NNW 10.4 mph 18.4 mph N/A   Scattered Clouds
8:26 AM 69.8 °F 62.6 °F 78% 29.73 in 10.0 mi North 12.7 mph - N/A   Scattered Clouds
8:46 AM 69.8 °F 62.6 °F 78% 29.74 in 10.0 mi NNW 8.1 mph - N/A   Clear
9:06 AM 69.8 °F 62.6 °F 78% 29.74 in 10.0 mi NNW 11.5 mph - N/A   Clear
9:26 AM 69.8 °F 60.8 °F 73% 29.74 in 10.0 mi NNW 11.5 mph - N/A   Clear
9:46 AM 69.8 °F 60.8 °F 73% 29.76 in 10.0 mi NNW 10.4 mph 17.3 mph N/A   Clear
10:06 AM 69.8 °F 60.8 °F 73% 29.76 in 10.0 mi NNW 10.4 mph - N/A   Scattered Clouds
10:26 AM 69.8 °F 60.8 °F 73% 29.76 in 10.0 mi NNW 8.1 mph - N/A   Scattered Clouds
10:46 AM 69.8 °F 60.8 °F 73% 29.76 in 10.0 mi NNW 11.5 mph - N/A   Clear
11:06 AM 69.8 °F 59.0 °F 68% 29.76 in 10.0 mi NNW 8.1 mph - N/A   Scattered Clouds
11:26 AM 69.8 °F 59.0 °F 68% 29.77 in 10.0 mi NNW 6.9 mph - N/A   Scattered Clouds
11:46 AM 69.8 °F 59.0 °F 68% 29.77 in 10.0 mi North 6.9 mph - N/A   Scattered Clouds
12:06 PM 71.6 °F 59.0 °F 64% 29.77 in 10.0 mi NNW 8.1 mph - N/A   Scattered Clouds
12:25 PM 73.4 °F 60.8 °F 65% 29.76 in 10.0 mi NW 8.1 mph - N/A   Scattered Clouds
12:46 PM 75.2 °F 60.8 °F 61% 29.76 in 10.0 mi NW 9.2 mph - N/A   Clear
1:06 PM 75.2 °F 59.0 °F 57% 29.76 in 10.0 mi NW 12.7 mph 18.4 mph N/A   Clear
1:26 PM 75.2 °F 55.4 °F 50% 29.75 in 10.0 mi NNW 11.5 mph 17.3 mph N/A   Clear
1:46 PM 75.2 °F 55.4 °F 50% 29.75 in 10.0 mi WNW 10.4 mph 19.6 mph N/A   Clear
2:06 PM 77.0 °F 55.4 °F 47% 29.75 in 10.0 mi WNW 13.8 mph 19.6 mph N/A   Clear
2:26 PM 77.0 °F 57.2 °F 50% 29.75 in 10.0 mi NW 13.8 mph 19.6 mph N/A   Clear
2:46 PM 77.0 °F 57.2 °F 50% 29.74 in 10.0 mi WNW 9.2 mph 18.4 mph N/A   Clear
3:06 PM 78.8 °F 55.4 °F 44% 29.74 in 10.0 mi WNW 10.4 mph 18.4 mph N/A   Clear
3:26 PM 78.8 °F 53.6 °F 42% 29.75 in 10.0 mi WNW 11.5 mph 20.7 mph N/A   Clear
3:46 PM 78.8 °F 53.6 °F 42% 29.75 in 10.0 mi WNW 12.7 mph 24.2 mph N/A   Clear
4:07 PM 78.8 °F 51.8 °F 39% 29.76 in 10.0 mi NW 8.1 mph 18.4 mph N/A   Clear
4:27 PM 78.8 °F 53.6 °F 42% 29.76 in 10.0 mi WNW 11.5 mph 16.1 mph N/A   Clear
4:47 PM 78.8 °F 51.8 °F 39% 29.75 in 10.0 mi NW 9.2 mph 18.4 mph N/A   Clear
5:07 PM 75.2 °F 50.0 °F 41% 29.76 in 10.0 mi NW 9.2 mph 18.4 mph N/A   Clear
5:27 PM 77.0 °F 50.0 °F 39% 29.75 in 10.0 mi NW 9.2 mph 16.1 mph N/A   Clear
5:47 PM 77.0 °F 50.0 °F 39% 29.76 in 10.0 mi NW 9.2 mph - N/A   Clear
6:07 PM 75.2 °F 51.8 °F 44% 29.76 in 10.0 mi NW 9.2 mph - N/A   Clear
6:27 PM 75.2 °F 51.8 °F 44% 29.76 in 10.0 mi NW 9.2 mph - N/A   Clear
6:47 PM 75.2 °F 51.8 °F 44% 29.77 in 10.0 mi NW 5.8 mph - N/A   Clear
7:07 PM 71.6 °F 51.8 °F 50% 29.78 in 10.0 mi NW 3.5 mph - N/A   Clear
7:27 PM 69.8 °F 53.6 °F 56% 29.79 in 10.0 mi Calm Calm - N/A   Scattered Clouds
7:47 PM 69.8 °F 53.6 °F 56% 29.81 in 10.0 mi North 3.5 mph - N/A   Mostly Cloudy
8:07 PM 69.8 °F 53.6 °F 56% 29.82 in 10.0 mi NNE 3.5 mph - N/A   Mostly Cloudy
8:27 PM 71.6 °F 53.6 °F 53% 29.84 in 10.0 mi NNW 6.9 mph - N/A   Mostly Cloudy
8:47 PM 69.8 °F 53.6 °F 56% 29.84 in 10.0 mi North 4.6 mph - N/A   Mostly Cloudy
9:07 PM 69.8 °F 53.6 °F 56% 29.85 in 10.0 mi North 4.6 mph - N/A   Scattered Clouds
9:27 PM 68.0 °F 55.4 °F 64% 29.86 in 10.0 mi Calm Calm - N/A   Clear
9:47 PM 69.8 °F 55.4 °F 60% 29.87 in 10.0 mi NW 9.2 mph - N/A   Scattered Clouds
10:07 PM 69.8 °F 53.6 °F 56% 29.87 in 10.0 mi NW 10.4 mph 16.1 mph N/A   Clear
10:27 PM 69.8 °F 55.4 °F 60% 29.87 in 10.0 mi NNW 11.5 mph 17.3 mph N/A   Clear
10:47 PM 69.8 °F 53.6 °F 56% 29.88 in 10.0 mi NW 9.2 mph - N/A   Scattered Clouds
11:07 PM 69.8 °F 55.4 °F 60% 29.88 in 10.0 mi NW 11.5 mph - N/A   Scattered Clouds
11:27 PM 68.0 °F 53.6 °F 60% 29.89 in 10.0 mi NW 11.5 mph - N/A   Scattered Clouds
11:47 PM 68.0 °F 53.6 °F 60% 29.89 in 10.0 mi NW 6.9 mph - N/A   Clear